Location: Bacharowice
(49.9333°N, 19.5833°E)
Time: 07:52:59
(UTC+00:00)

Cosmos 2344 - Pass Details

Date: 25 September 2021
Orbit: 1235 x 3007 km, 63.3° (Epoch: 19 October)

Event Time Altitude Azimuth Distance (km) Brightness Sun altitude
Rises 16:54:11 0° 257° (WSW) 4,180 8.1 -4.2°
Reaches altitude 10° 16:57:03 10° 265° (W) 3,201 7.5 -4.7°
Maximum altitude 17:04:03 43° 336° (NNW) 1,769 4.7 -5.8°
Drops below altitude 10° 17:12:09 10° 47° (NE) 3,691 5.6 -7.1°
Sets 17:15:43 0° 54° (NE) 4,890 6.2 -7.7°
